GFSGBSN_925_thetae_120.txt.gz
Theta_e
312 313 312 311 309 308 307 305 303 301 301 301 301 300 299 299 297 296 296 295 295 294 294 298 303 304 300 302 301 303 304 304 305 305 304 304 304 304 303 310 307 310 309 308 309 311 313
312 312 311 310 308 306 306 306 304 301 301 301 300 299 298 297 297 296 296 295 294 294 295 300 303 304 303 299 301 304 305 304 303 304 305 304 304 304 304 303 303 306 306 309 310 310 311
312 311 310 308 307 306 306 305 304 302 301 301 299 298 298 297 296 296 295 294 293 295 298 302 303 303 303 299 304 305 304 304 304 303 304 305 304 304 303 304 304 305 304 304 307 311 312
311 311 309 307 306 306 306 305 303 302 300 299 298 298 297 296 296 295 294 294 299 302 301 302 300 304 302 304 306 306 304 303 306 305 305 305 303 302 303 303 304 304 304 304 305 308 311
311 310 308 306 305 305 304 303 302 300 300 298 298 298 297 296 295 293 297 302 303 303 303 304 302 304 305 304 307 303 303 303 304 305 305 306 304 303 306 305 304 303 304 304 304 306 309
310 309 307 306 305 304 302 302 301 299 298 298 298 298 297 295 293 296 302 302 304 304 305 304 303 303 303 303 303 303 304 304 303 304 306 304 301 301 302 304 306 303 303 303 303 304 307
309 307 307 305 303 302 302 301 299 298 298 298 299 298 296 294 294 299 302 301 299 299 300 299 302 301 301 301 302 303 304 304 304 306 306 305 303 304 304 303 305 306 305 304 304 304 306
308 307 305 303 301 302 301 301 300 299 299 299 299 296 294 293 297 302 302 301 301 300 300 301 301 301 301 302 302 302 305 305 305 306 304 306 307 306 306 305 303 303 306 308 306 304 305
306 305 303 301 301 301 301 301 300 299 299 298 296 294 293 294 299 302 302 302 302 302 300 302 304 303 303 303 303 304 306 306 303 303 305 307 307 305 306 306 306 305 304 305 308 304 304
303 302 301 301 301 301 301 300 299 299 298 297 296 294 295 296 301 302 301 301 302 303 301 308 305 305 303 302 305 304 306 306 303 304 304 305 304 304 305 306 308 308 304 305 307 305 306
301 301 301 300 300 300 300 300 299 299 297 297 295 295 295 296 300 303 302 302 303 302 305 305 302 302 301 304 303 305 305 303 306 305 303 306 307 309 310 310 311 309 306 305 307 305 304
301 300 299 299 300 300 299 299 298 297 297 296 295 294 295 301 301 302 302 302 304 304 305 302 300 301 301 303 303 304 307 307 305 305 304 305 305 306 307 309 310 311 307 308 306 306 307
300 299 299 300 299 298 297 297 297 297 295 295 294 294 295 300 302 301 302 303 305 304 301 300 299 302 302 303 304 306 309 307 308 310 309 310 310 311 312 313 312 311 309 309 309 311 317
299 299 299 298 299 298 298 297 297 296 295 295 295 295 296 300 302 302 303 302 306 301 299 300 301 302 303 303 303 307 309 309 306 308 311 312 311 311 310 313 315 313 309 307 313 318 316
298 297 297 298 298 297 297 297 297 294 296 295 295 299 300 302 302 303 301 303 301 299 300 301 302 303 303 303 301 305 305 308 307 307 312 313 312 310 309 311 315 309 307 306 315 318 315
298 297 297 298 298 297 296 296 295 296 295 295 298 301 302 303 302 304 299 306 301 301 301 301 303 304 303 303 302 297 305 305 307 305 309 311 314 312 312 314 314 312 309 315 317 320 319
297 296 297 297 297 297 296 296 295 295 295 296 300 301 302 300 303 301 299 303 302 300 301 302 302 303 303 305 304 301 306 305 303 305 308 310 313 313 313 316 315 314 313 315 317 318 322
298 298 298 298 297 296 297 295 296 295 296 299 300 302 302 301 300 298 299 304 302 302 302 302 302 303 305 305 303 305 306 307 303 303 306 309 315 315 312 312 313 314 316 316 316 321 319
298 297 297 297 296 297 297 295 296 296 296 300 301 300 301 302 300 301 304 303 302 302 301 302 302 305 304 303 303 304 305 305 303 303 304 308 312 313 310 311 311 313 313 314 316 316 318
296 296 296 296 295 296 296 296 296 297 297 299 299 299 299 299 299 300 300 302 302 303 302 302 303 304 301 301 302 302 305 304 303 303 309 307 311 313 313 312 312 314 313 314 316 317 316
297 296 295 296 295 295 296 295 296 297 297 300 295 299 299 296 297 298 299 300 301 303 301 300 301 301 300 300 301 304 303 303 302 304 304 305 309 310 311 312 315 316 316 315 317 318 315
296 297 295 296 295 296 295 294 296 298 297 300 294 298 297 300 298 298 300 300 300 300 299 299 300 300 299 300 302 303 302 302 302 304 304 304 308 310 311 312 314 315 316 313 314 315 319
297 296 294 295 295 295 293 293 295 297 299 299 299 299 296 299 299 298 300 300 301 301 301 301 300 299 299 301 301 301 300 301 302 303 303 305 307 308 312 311 315 312 310 311 310 309 316
297 296 295 295 295 294 293 292 294 297 300 301 300 298 295 297 299 301 302 301 302 303 302 302 303 303 302 301 300 301 302 302 303 304 303 306 307 308 311 310 316 312 306 309 308 307 306
296 295 295 294 295 294 293 293 294 297 298 300 300 299 297 296 300 301 302 303 301 300 301 304 302 302 300 301 302 304 304 307 308 308 308 306 307 307 310 311 315 308 305 307 309 308 306
296 295 295 295 295 294 293 293 294 296 298 299 299 299 297 294 300 301 301 301 300 299 299 302 301 300 301 300 299 305 308 308 309 308 307 308 308 307 308 312 311 306 302 303 306 308 305
296 295 295 295 294 294 293 294 294 296 297 298 298 298 297 291 297 299 299 300 300 299 299 299 300 300 298 296 302 303 306 306 308 309 308 308 306 306 307 310 308 302 302 302 306 307 304
296 295 295 294 294 293 293 294 294 296 297 298 298 298 296 292 296 298 300 301 300 299 299 298 296 298 297 299 302 301 302 304 306 308 308 307 305 306 304 305 305 300 301 303 302 299 301
295 295 295 295 294 293 293 293 293 295 296 297 298 298 297 295 294 297 297 297 298 300 298 298 299 299 299 296 296 299 301 301 303 304 307 309 307 304 304 304 300 298 299 298 299 299 297

GFSGBSN_925_thetae_123.txt.gz
Theta_e
314 315 313 312 312 311 310 308 306 302 300 299 300 300 299 298 297 296 295 295 295 294 294 295 297 302 300 298 298 302 304 302 303 303 303 303 303 303 303 302 302 302 306 308 307 307 306
316 315 313 313 312 311 310 308 305 302 300 299 299 298 298 297 296 295 295 295 294 293 295 298 300 302 302 297 301 303 304 303 304 304 303 304 304 303 303 303 302 302 303 303 303 303 304
317 315 313 314 312 310 309 307 305 303 300 299 299 298 296 296 296 295 295 294 294 297 300 301 302 303 303 299 304 305 304 303 303 304 302 304 304 303 302 302 303 303 303 303 303 303 303
318 316 314 314 312 310 307 306 305 304 301 299 299 297 297 296 295 295 293 296 300 301 301 302 302 303 302 304 305 304 304 303 303 305 304 305 304 302 301 302 303 303 302 302 302 302 303
318 316 314 313 311 309 306 306 305 304 302 300 298 297 296 296 295 293 298 302 302 303 302 302 303 303 301 305 303 304 303 303 303 303 304 304 304 302 302 303 302 303 302 302 302 302 302
318 316 314 312 310 308 306 306 305 303 301 299 297 296 297 296 294 297 302 301 304 304 305 304 303 302 301 303 303 302 303 303 302 302 304 305 301 301 300 301 302 300 300 301 301 301 302
319 316 313 311 309 307 306 305 303 302 299 298 297 296 296 295 295 301 302 300 297 298 301 298 300 302 300 301 302 302 303 303 303 304 305 304 303 303 302 301 303 303 303 303 303 304 304
318 314 312 309 307 305 305 303 301 299 298 298 297 297 295 293 297 302 301 300 300 299 299 300 300 300 301 301 301 301 303 305 305 306 304 303 304 303 304 304 304 304 304 304 303 303 304
316 313 310 308 306 304 302 301 299 299 299 298 297 296 294 293 298 302 302 302 302 302 299 301 302 303 303 301 302 302 304 305 305 304 303 303 304 305 305 305 306 306 307 306 306 306 303
314 310 308 306 303 302 301 301 301 300 299 298 296 294 294 295 301 301 301 301 302 302 304 307 306 304 303 302 303 303 305 304 303 304 303 303 303 304 304 304 304 306 306 308 311 309 306
310 308 305 303 302 301 300 301 300 300 299 296 296 294 295 297 301 301 302 303 302 302 304 306 302 301 300 303 303 303 305 304 305 305 303 306 306 307 307 307 307 309 309 311 307 305 304
307 304 303 302 301 301 301 300 299 299 298 295 295 295 296 299 300 302 302 303 303 307 307 301 299 300 301 302 303 303 306 305 303 305 304 305 304 305 306 307 308 311 311 309 307 306 308
304 303 302 301 301 300 299 298 298 298 297 296 295 295 296 300 301 301 302 303 305 306 300 300 299 301 302 302 303 305 307 307 306 308 307 308 309 306 306 311 312 310 308 308 308 309 309
301 300 300 300 300 299 299 298 297 297 296 296 295 294 295 300 301 302 303 301 307 302 299 300 301 302 302 302 302 304 306 306 305 306 308 310 309 311 310 311 312 313 307 309 307 315 313
298 299 299 298 298 297 297 297 297 296 295 295 295 295 297 300 301 302 301 304 304 299 300 300 301 302 302 302 299 302 302 307 306 304 308 310 311 308 308 310 313 313 314 309 309 314 316
298 298 297 298 297 298 297 297 297 295 295 296 298 300 301 302 302 303 301 304 300 301 300 301 302 302 303 301 302 294 304 304 304 303 304 310 311 309 311 313 312 313 310 313 314 319 320
298 297 297 298 297 296 297 297 297 295 295 297 299 300 303 302 303 300 301 303 300 300 301 301 302 301 302 304 304 298 303 304 303 302 301 307 310 310 311 314 314 314 317 316 316 318 322
297 297 298 297 297 296 297 296 296 295 295 297 300 300 301 301 302 299 302 304 301 301 301 302 301 303 304 303 302 303 305 305 303 302 302 304 309 311 310 311 312 313 315 315 318 319 319
297 297 297 298 297 296 297 297 296 295 298 300 299 299 300 301 303 304 304 302 302 301 301 301 301 304 302 301 301 302 303 303 303 302 303 304 308 309 307 309 309 312 312 314 316 318 320
297 297 298 297 297 298 297 296 296 297 297 300 297 299 299 299 299 299 300 301 302 302 301 300 302 300 300 300 301 300 301 303 302 302 305 305 308 305 305 309 311 314 314 314 316 318 317
298 297 297 297 297 297 296 296 296 297 297 299 295 299 300 301 298 298 299 300 301 301 299 299 300 299 299 299 300 301 302 302 301 302 303 304 306 308 308 309 311 314 315 314 314 316 319
296 296 296 296 295 295 295 295 296 297 298 299 298 300 297 299 297 297 299 300 300 299 299 299 300 299 299 299 299 300 301 301 301 302 301 302 305 307 309 311 311 307 308 309 309 311 317
297 296 295 296 295 296 295 294 296 297 299 298 298 297 297 298 298 297 299 300 301 300 300 300 300 300 300 300 299 300 300 301 301 301 302 302 305 307 310 310 316 310 307 308 308 307 311
297 295 295 295 295 296 293 293 296 298 300 300 300 296 296 298 298 300 302 300 302 302 301 303 301 302 302 300 299 300 300 301 301 301 301 303 306 306 310 310 311 309 305 307 307 305 305
296 296 295 295 295 295 293 292 296 297 300 300 300 298 296 297 299 301 302 301 300 299 300 302 301 301 298 300 302 303 304 305 306 307 306 302 305 307 309 312 311 308 303 304 307 306 303
296 295 295 295 295 294 293 293 295 297 299 299 298 299 296 297 299 300 300 300 299 299 299 300 300 299 298 299 298 305 307 307 308 306 304 306 304 308 308 311 309 305 301 301 304 306 303
296 294 294 295 294 294 293 293 295 297 298 298 298 298 296 294 297 298 299 299 298 298 298 298 299 298 297 295 302 303 305 304 307 307 306 305 304 306 306 311 307 301 300 301 306 303 301
296 295 295 295 294 294 293 293 295 297 298 298 298 297 296 292 295 297 300 300 299 297 298 297 295 295 296 297 300 300 302 303 305 307 305 306 305 304 303 304 302 299 300 302 301 298 297
296 295 295 295 294 293 293 293 295 297 298 298 298 297 297 293 294 297 298 298 298 299 296 296 297 298 298 294 293 298 300 299 302 303 303 301 305 304 304 303 299 298 299 298 298 298 297

GFSGBSN_925_thetae_126.txt.gz
Theta_e
321 319 316 315 315 313 311 311 310 308 306 302 300 300 300 298 297 295 296 295 295 294 294 297 299 298 299 297 298 302 303 303 305 305 302 302 302 302 302 302 301 302 302 302 301 301 301
322 321 318 315 316 314 312 312 310 308 305 301 300 300 299 298 296 295 295 295 294 294 297 299 299 300 300 299 300 303 303 302 303 304 303 303 303 303 302 302 302 301 302 302 302 302 301
325 321 319 316 315 314 313 312 310 307 303 301 300 300 298 297 296 295 295 294 294 299 301 301 300 302 301 300 303 304 303 303 303 303 302 304 303 303 302 301 301 302 302 302 301 301 301
322 322 320 319 315 314 313 312 310 307 303 302 300 300 298 296 295 295 294 296 301 301 301 301 301 303 300 302 304 304 304 303 303 303 303 303 303 302 301 301 302 303 302 301 300 300 301
314 321 320 319 316 315 313 311 309 306 305 303 301 300 298 296 295 294 298 301 302 303 302 302 302 302 300 304 303 304 303 303 303 303 303 303 303 302 301 302 300 301 299 300 301 300 300
309 318 320 319 316 314 312 311 308 306 305 303 300 299 296 296 294 297 301 302 304 303 303 303 303 301 301 302 302 302 302 302 302 301 303 304 299 301 299 299 301 299 300 299 300 300 301
312 312 319 319 316 314 312 310 307 305 304 302 299 299 297 295 294 299 301 301 297 298 305 300 300 300 300 301 301 302 302 302 302 303 304 303 303 303 301 301 302 301 302 302 302 302 303
312 314 318 319 316 313 310 308 306 305 303 300 298 298 297 295 297 300 301 297 297 297 295 298 299 299 300 301 301 301 302 304 304 304 303 302 304 303 301 301 302 302 303 304 303 304 304
316 314 319 318 315 312 309 307 305 303 301 300 298 297 296 293 298 301 301 301 301 301 296 300 301 302 302 301 302 301 303 304 305 304 303 304 304 303 304 304 305 305 305 305 305 305 305
316 315 318 316 313 310 308 306 303 300 298 296 296 295 294 294 301 301 301 301 301 302 302 306 304 303 302 302 302 302 304 305 303 304 303 302 302 303 303 303 303 304 304 306 306 308 312
317 318 318 314 310 308 306 303 301 300 298 297 296 294 294 298 301 300 301 302 302 302 300 305 303 302 300 302 302 302 304 303 305 305 303 304 306 305 305 305 305 305 306 309 310 311 307
316 319 314 311 308 305 303 301 301 300 298 298 295 295 295 298 301 302 301 303 302 302 302 300 299 301 302 302 302 302 305 304 304 305 304 304 304 304 305 305 305 306 309 310 309 306 308
317 314 311 307 304 303 301 301 300 299 298 297 294 295 299 300 301 301 301 301 302 301 300 299 299 301 302 302 302 304 306 304 304 305 304 305 307 305 304 308 309 309 307 307 306 307 308
312 308 305 304 303 302 301 300 299 298 297 298 296 296 298 301 301 301 303 302 304 302 299 300 300 302 301 301 302 301 305 304 304 304 304 305 303 308 309 309 309 311 311 309 307 310 309
300 303 303 302 302 301 299 298 297 297 298 296 295 295 295 299 301 302 300 302 304 299 299 301 301 302 301 301 300 301 301 305 305 303 303 307 305 304 304 306 309 314 314 309 310 310 312
299 298 298 298 298 298 297 296 296 295 296 295 297 298 300 299 301 302 300 302 300 300 300 301 301 302 302 301 302 294 302 303 303 302 302 303 306 305 308 312 312 313 311 314 310 313 319
296 296 296 296 296 296 296 297 297 297 297 296 300 301 302 301 302 299 300 303 300 300 301 301 301 301 302 303 303 297 302 302 302 302 300 301 307 306 307 313 313 313 314 314 318 316 320
297 299 298 298 297 296 297 296 297 296 297 299 299 302 301 302 300 298 301 302 301 300 301 301 301 302 303 302 301 301 304 303 301 301 301 301 306 308 306 306 310 312 314 314 318 318 317
297 299 298 297 296 297 297 297 297 296 297 300 299 300 299 301 303 303 304 302 301 301 300 300 302 303 301 300 300 301 302 301 301 301 301 303 306 306 304 306 307 309 310 312 316 317 320
297 297 298 297 296 297 297 297 297 296 298 300 298 298 298 298 299 301 301 301 302 301 300 300 300 299 299 299 299 300 299 301 301 301 303 305 305 301 301 303 310 310 313 314 315 317 318
297 297 298 297 298 297 297 296 297 297 298 299 295 296 298 299 299 298 299 301 301 301 299 299 299 299 298 299 299 300 301 300 301 302 302 303 305 305 306 307 311 307 308 308 311 313 318
297 297 296 297 297 297 297 296 297 297 298 297 298 298 297 298 298 298 299 299 299 298 298 299 299 299 297 298 299 300 300 301 301 300 301 301 304 305 307 311 314 308 306 305 305 307 314
297 297 297 297 296 297 295 295 297 297 299 297 297 297 297 298 297 299 299 299 299 299 299 300 299 299 300 300 299 297 297 299 300 301 300 301 303 307 309 309 313 309 306 308 305 304 308
297 296 297 296 296 296 294 295 297 298 300 299 299 296 298 299 299 300 301 300 300 300 300 302 301 301 301 298 299 299 299 300 300 300 300 302 304 306 309 311 311 308 303 306 306 304 303
297 297 297 296 296 294 293 294 297 299 300 300 299 297 297 299 299 301 301 300 299 299 300 301 300 299 297 299 302 303 304 304 305 305 304 300 303 308 308 311 309 306 302 301 303 305 302
297 296 296 295 294 293 293 294 297 299 299 300 298 298 296 300 300 300 300 299 298 298 298 300 299 297 297 298 298 305 306 306 307 305 303 302 301 307 306 311 308 303 299 300 303 305 300
296 295 295 296 294 293 293 294 297 298 298 298 297 297 296 296 297 298 299 299 297 297 297 298 299 297 296 294 301 302 305 303 306 306 305 304 303 304 303 308 306 299 298 299 305 300 298
296 295 296 295 294 293 293 295 297 298 298 298 297 296 295 293 295 297 300 299 298 296 296 296 295 295 296 297 300 300 301 303 303 305 307 304 305 302 303 302 300 297 298 300 299 298 296
295 295 295 295 294 293 293 295 297 298 297 297 297 296 296 293 294 297 298 298 298 297 296 295 296 297 297 294 293 297 300 298 301 302 301 300 302 302 303 302 298 296 297 296 296 296 295

GFSGBSN_925_thetae_129.txt.gz
Theta_e
324 323 322 320 317 314 316 315 312 311 309 307 305 302 300 300 300 299 297 295 295 294 294 298 299 300 299 298 299 302 303 303 304 304 303 303 303 303 304 303 303 304 303 303 303 303 304
320 323 325 322 320 317 315 316 313 311 310 307 305 301 299 299 298 298 297 295 295 294 298 300 299 301 300 299 300 303 303 302 303 304 303 304 304 303 303 303 303 303 303 303 303 304 303
310 314 322 324 323 320 316 316 314 312 311 308 304 300 300 299 297 297 296 295 294 299 300 300 300 301 301 299 302 303 303 303 303 302 303 303 303 305 304 304 302 303 303 303 302 302 303
308 309 313 321 322 322 318 316 315 312 311 308 303 300 300 298 296 296 295 295 300 301 301 301 300 302 300 302 303 303 303 303 303 303 303 303 303 303 304 303 303 304 303 303 302 303 302
306 309 309 311 320 321 321 316 315 313 311 308 303 301 299 297 296 295 295 300 302 302 301 301 301 302 301 303 303 303 303 303 302 302 303 303 303 304 303 304 304 302 303 303 303 302 303
307 307 309 311 313 319 319 317 316 313 311 307 303 300 299 297 296 295 300 303 303 302 302 302 302 301 302 301 302 301 302 302 302 303 304 304 302 304 303 304 303 302 303 303 303 303 303
306 308 309 311 311 317 318 318 315 312 310 306 303 300 298 296 295 298 303 304 299 301 304 300 300 300 300 300 301 301 302 302 303 304 306 304 306 306 305 304 304 303 304 304 304 304 304
305 305 308 311 312 313 318 317 314 311 308 305 302 299 296 296 295 299 301 297 297 297 297 298 299 299 299 300 302 301 302 305 305 306 304 305 307 305 304 303 303 304 305 305 305 306 307
304 304 307 310 313 314 317 316 313 309 307 304 301 299 297 295 296 301 300 300 300 300 298 300 301 301 302 301 302 302 303 304 305 306 305 307 306 304 304 305 305 306 306 307 307 307 308
304 306 307 311 314 314 317 315 310 307 305 303 299 298 296 294 300 301 301 301 301 301 304 304 303 303 302 302 303 301 303 305 304 306 304 305 303 304 304 305 304 307 305 306 306 310 313
305 307 309 316 317 314 318 313 308 306 304 300 299 295 294 298 301 301 301 301 301 301 301 304 303 302 301 302 302 302 303 304 307 306 305 307 306 307 307 307 305 308 305 307 309 311 311
307 312 314 318 317 315 314 309 306 304 301 299 296 295 294 299 301 301 301 301 302 307 301 302 300 301 302 302 302 303 305 304 304 305 304 306 305 305 306 306 306 307 309 311 310 310 309
307 317 317 318 315 314 310 306 303 301 300 299 297 294 295 300 302 301 302 302 307 303 300 298 301 302 302 302 303 304 305 304 304 304 303 304 306 306 305 308 309 310 312 313 310 310 309
300 318 317 315 312 308 305 303 301 300 299 298 295 296 297 301 302 301 303 305 303 302 300 299 301 301 303 302 302 302 306 304 304 305 304 303 302 307 308 309 309 309 312 314 315 312 313
301 298 314 310 306 303 302 301 300 299 297 297 296 298 299 300 301 302 302 307 303 301 300 301 302 302 302 301 303 302 303 305 304 303 301 304 302 304 303 308 310 316 315 312 313 311 312
302 300 294 303 304 302 301 299 298 297 297 296 295 297 297 300 301 302 303 305 300 300 300 301 302 302 302 302 302 301 303 303 303 302 301 303 305 303 306 310 312 313 313 316 314 315 315
298 298 299 297 295 299 299 298 298 297 296 295 299 302 301 300 302 301 305 302 300 300 301 302 301 302 302 303 303 301 303 303 303 302 301 302 304 305 306 311 308 312 311 312 313 315 319
296 295 295 296 296 295 294 296 296 297 294 299 299 302 300 301 304 301 303 302 300 300 301 301 302 303 303 302 302 302 304 303 301 301 302 303 305 307 305 305 308 307 310 312 315 317 316
298 297 297 295 295 296 296 297 297 295 298 299 301 301 299 300 305 304 303 303 301 301 301 301 304 302 301 301 301 301 302 301 301 301 302 304 307 307 303 308 307 309 308 310 314 315 318
297 297 296 297 296 297 297 296 296 298 299 299 299 302 300 300 300 304 304 302 302 300 300 301 300 300 300 299 299 301 300 301 301 301 302 305 307 307 307 306 308 309 307 307 309 318 317
298 298 296 296 295 296 297 296 297 298 299 298 297 299 300 302 302 299 301 302 302 300 299 300 299 299 299 299 299 299 301 301 301 303 303 303 305 306 306 306 309 309 307 306 306 310 311
297 297 296 297 296 297 296 296 297 297 298 296 299 300 298 300 301 300 301 301 301 299 299 299 300 299 299 299 299 300 300 301 302 301 302 302 306 305 307 309 311 309 306 305 304 305 308
297 297 296 297 295 296 296 297 297 297 299 297 297 296 299 298 298 300 300 300 300 301 302 300 300 300 299 299 299 299 299 301 302 302 302 303 305 308 308 308 313 309 305 306 304 303 304
297 297 296 296 297 297 295 297 297 298 300 299 297 296 299 300 299 300 300 300 300 300 302 301 300 302 300 299 299 300 300 300 301 302 301 304 305 307 308 309 312 307 301 305 304 303 302
297 297 297 297 297 295 294 297 298 300 300 299 298 297 298 300 300 301 302 301 300 300 301 301 300 299 298 300 303 304 305 305 305 304 303 301 305 309 309 309 310 306 301 300 303 302 300
297 297 297 297 294 293 294 297 299 299 299 299 297 297 298 301 301 300 300 300 300 300 300 300 298 297 298 301 303 306 306 306 307 305 303 302 303 307 306 309 309 303 299 299 302 305 299
296 296 296 295 293 293 293 297 299 298 298 298 296 296 298 299 298 299 300 300 298 298 299 299 299 299 298 301 305 305 305 304 306 306 305 304 304 304 303 307 305 299 298 298 307 302 297
296 296 296 295 293 293 294 297 298 298 298 298 296 296 297 296 296 298 299 299 298 297 300 298 299 298 299 301 302 303 304 304 305 305 305 303 303 302 302 303 303 297 298 300 297 298 296
296 295 296 294 293 292 295 297 297 298 297 297 297 296 296 296 296 297 297 297 297 297 298 296 297 298 299 299 299 300 303 302 303 306 303 305 303 302 302 302 298 296 296 295 294 294 293